Time,TemperatureF,DewpointF,PressureIn,WindDirection,WindDirectionDegrees,WindSpeedMPH,WindSpeedGustMPH,Humidity,HourlyPrecipIn,Conditions,Clouds,dailyrainin,SoftwareType,DateUTC
2013-02-05 00:07:00,15.2,0.0,29.88,West,271,4.0,10.0,51,0.00,,,0.00,weatherlink.com 1.10,2013-02-05 05:07:00,
2013-02-05 00:22:00,15.2,0.0,29.88,West,281,7.0,11.0,51,0.00,,,0.00,weatherlink.com 1.10,2013-02-05 05:22:00,
2013-02-05 00:37:00,15.2,0.0,29.88,West,267,5.0,12.0,52,0.00,,,0.00,weatherlink.com 1.10,2013-02-05 05:37:00,
2013-02-05 00:52:00,15.1,0.0,29.89,West,275,7.0,10.0,52,0.00,,,0.00,weatherlink.com 1.10,2013-02-05 05:52:00,
2013-02-05 01:07:00,14.6,0.0,29.89,WNW,302,2.0,7.0,53,0.00,,,0.00,weatherlink.com 1.10,2013-02-05 06:07:00,
2013-02-05 01:22:00,14.3,1.0,29.90,WNW,299,0.0,4.0,56,0.00,,,0.00,weatherlink.com 1.10,2013-02-05 06:22:00,
2013-02-05 01:37:00,13.9,1.0,29.90,West,268,5.0,9.0,56,0.00,,,0.00,weatherlink.com 1.10,2013-02-05 06:37:00,
2013-02-05 01:52:00,13.3,1.0,29.91,West,271,2.0,3.0,58,0.00,,,0.00,weatherlink.com 1.10,2013-02-05 06:52:00,
2013-02-05 02:07:00,12.2,0.0,29.92,West,271,1.0,4.0,59,0.00,,,0.00,weatherlink.com 1.10,2013-02-05 07:07:00,
2013-02-05 02:22:00,11.2,0.0,29.92,West,265,2.0,5.0,60,0.00,,,0.00,weatherlink.com 1.10,2013-02-05 07:22:00,
2013-02-05 02:37:00,10.3,0.0,29.92,West,265,1.0,3.0,63,0.00,,,0.00,weatherlink.com 1.10,2013-02-05 07:37:00,
2013-02-05 02:52:00,9.6,0.0,29.92,West,265,1.0,4.0,65,0.00,,,0.00,weatherlink.com 1.10,2013-02-05 07:52:00,
2013-02-05 03:07:00,9.3,0.0,29.92,West,267,0.0,4.0,65,0.00,,,0.00,weatherlink.com 1.10,2013-02-05 08:07:00,
2013-02-05 03:23:00,9.1,0.0,29.92,West,267,0.0,3.0,66,0.00,,,0.00,weatherlink.com 1.10,2013-02-05 08:23:00,
2013-02-05 03:38:00,7.8,0.0,29.93,West,267,0.0,0.0,69,0.00,,,0.00,weatherlink.com 1.10,2013-02-05 08:38:00,
2013-02-05 03:53:00,6.6,0.0,29.93,West,267,0.0,0.0,73,0.00,,,0.00,weatherlink.com 1.10,2013-02-05 08:53:00,
2013-02-05 04:08:00,6.0,-1.0,29.94,West,267,0.0,0.0,74,0.00,,,0.00,weatherlink.com 1.10,2013-02-05 09:08:00,
2013-02-05 04:23:00,5.4,-1.0,29.94,West,267,0.0,0.0,76,0.00,,,0.00,weatherlink.com 1.10,2013-02-05 09:23:00,
2013-02-05 04:38:00,4.9,-1.0,29.95,West,267,0.0,0.0,77,0.00,,,0.00,weatherlink.com 1.10,2013-02-05 09:38:00,
2013-02-05 04:53:00,4.5,-1.0,29.95,West,267,0.0,1.0,78,0.00,,,0.00,weatherlink.com 1.10,2013-02-05 09:53:00,
2013-02-05 05:08:00,4.1,-1.0,29.95,West,267,0.0,1.0,79,0.00,,,0.00,weatherlink.com 1.10,2013-02-05 10:08:00,
2013-02-05 05:23:00,3.7,-1.0,29.95,West,267,0.0,0.0,80,0.00,,,0.00,weatherlink.com 1.10,2013-02-05 10:23:00,
2013-02-05 05:38:00,3.3,-1.0,29.96,West,267,0.0,1.0,81,0.00,,,0.00,weatherlink.com 1.10,2013-02-05 10:38:00,
2013-02-05 05:53:00,2.9,-2.0,29.96,West,267,0.0,0.0,81,0.00,,,0.00,weatherlink.com 1.10,2013-02-05 10:53:00,
2013-02-05 06:08:00,2.5,-2.0,29.96,West,267,0.0,0.0,82,0.00,,,0.00,weatherlink.com 1.10,2013-02-05 11:08:00,
2013-02-05 06:23:00,2.9,-1.0,29.97,West,267,0.0,3.0,83,0.00,,,0.00,weatherlink.com 1.10,2013-02-05 11:23:00,
2013-02-05 06:39:00,2.7,-1.0,29.98,West,267,0.0,1.0,83,0.00,,,0.00,weatherlink.com 1.10,2013-02-05 11:39:00,
2013-02-05 06:53:00,2.4,-1.0,29.99,West,267,0.0,0.0,84,0.00,,,0.00,weatherlink.com 1.10,2013-02-05 11:53:00,
2013-02-05 07:09:00,2.3,-1.0,30.00,West,267,0.0,0.0,84,0.00,,,0.00,weatherlink.com 1.10,2013-02-05 12:09:00,
2013-02-05 07:24:00,2.5,-1.0,30.00,West,267,0.0,1.0,85,0.00,,,0.00,weatherlink.com 1.10,2013-02-05 12:24:00,
2013-02-05 07:39:00,3.4,0.0,30.00,West,267,0.0,1.0,85,0.00,,,0.00,weatherlink.com 1.10,2013-02-05 12:39:00,
2013-02-05 07:54:00,4.5,1.0,30.01,West,267,0.0,1.0,84,0.00,,,0.00,weatherlink.com 1.10,2013-02-05 12:54:00,
2013-02-05 08:09:00,6.9,1.0,30.01,West,267,2.0,3.0,76,0.00,,,0.00,weatherlink.com 1.10,2013-02-05 13:09:00,
2013-02-05 08:24:00,8.6,0.0,30.02,West,267,0.0,3.0,69,0.00,,,0.00,weatherlink.com 1.10,2013-02-05 13:24:00,
2013-02-05 08:39:00,9.7,-1.0,30.02,West,264,1.0,5.0,63,0.00,,,0.00,weatherlink.com 1.10,2013-02-05 13:39:00,
2013-02-05 08:54:00,11.0,0.0,30.02,WSW,240,0.0,5.0,61,0.00,,,0.00,weatherlink.com 1.10,2013-02-05 13:54:00,
2013-02-05 09:09:00,11.8,-1.0,30.02,WSW,240,1.0,3.0,57,0.00,,,0.00,weatherlink.com 1.10,2013-02-05 14:09:00,
2013-02-05 09:24:00,13.1,-1.0,30.02,SW,226,1.0,3.0,54,0.00,,,0.00,weatherlink.com 1.10,2013-02-05 14:24:00,
2013-02-05 09:39:00,13.9,-1.0,30.02,SW,226,0.0,1.0,53,0.00,,,0.00,weatherlink.com 1.10,2013-02-05 14:39:00,
2013-02-05 09:54:00,14.8,0.0,30.02,SW,226,1.0,3.0,52,0.00,,,0.00,weatherlink.com 1.10,2013-02-05 14:54:00,
2013-02-05 10:09:00,16.0,1.0,30.02,SW,224,0.0,3.0,52,0.00,,,0.00,weatherlink.com 1.10,2013-02-05 15:09:00,
2013-02-05 10:25:00,17.6,2.0,30.02,WSW,244,4.0,7.0,50,0.00,,,0.00,weatherlink.com 1.10,2013-02-05 15:25:00,
2013-02-05 10:40:00,18.1,1.0,30.02,West,261,5.0,8.0,48,0.00,,,0.00,weatherlink.com 1.10,2013-02-05 15:40:00,
2013-02-05 10:55:00,19.0,3.0,30.02,WNW,290,4.0,8.0,49,0.00,,,0.00,weatherlink.com 1.10,2013-02-05 15:55:00,
2013-02-05 11:10:00,19.3,2.0,30.01,West,269,6.0,9.0,47,0.00,,,0.00,weatherlink.com 1.10,2013-02-05 16:10:00,
2013-02-05 11:25:00,19.7,2.0,30.00,WSW,250,4.0,7.0,47,0.00,,,0.00,weatherlink.com 1.10,2013-02-05 16:25:00,
2013-02-05 11:40:00,20.2,3.0,29.99,NW,317,6.0,9.0,47,0.00,,,0.00,weatherlink.com 1.10,2013-02-05 16:40:00,
2013-02-05 11:55:00,21.0,3.0,29.98,West,260,6.0,10.0,46,0.00,,,0.00,weatherlink.com 1.10,2013-02-05 16:55:00,
2013-02-05 12:10:00,21.3,3.0,29.98,WSW,244,3.0,12.0,45,0.00,,,0.00,weatherlink.com 1.10,2013-02-05 17:10:00,
2013-02-05 12:25:00,22.0,3.0,29.98,West,272,6.0,8.0,44,0.00,,,0.00,weatherlink.com 1.10,2013-02-05 17:25:00,
2013-02-05 12:40:00,22.9,4.0,29.97,NW,308,7.0,12.0,44,0.00,,,0.00,weatherlink.com 1.10,2013-02-05 17:40:00,
2013-02-05 12:55:00,23.5,4.0,29.96,West,270,8.0,9.0,44,0.00,,,0.00,weatherlink.com 1.10,2013-02-05 17:55:00,
2013-02-05 13:10:00,23.6,3.0,29.96,WNW,295,3.0,9.0,42,0.00,,,0.00,weatherlink.com 1.10,2013-02-05 18:10:00,
2013-02-05 13:25:00,24.1,4.0,29.95,NW,316,6.0,9.0,42,0.00,,,0.00,weatherlink.com 1.10,2013-02-05 18:25:00,
2013-02-05 13:40:00,24.5,4.0,29.96,North,351,1.0,9.0,41,0.00,,,0.00,weatherlink.com 1.10,2013-02-05 18:40:00,
2013-02-05 13:57:00,24.9,4.0,29.95,NW,320,3.0,9.0,41,0.00,,,0.00,weatherlink.com 1.10,2013-02-05 18:57:00,
2013-02-05 14:11:00,25.3,4.0,29.95,WNW,284,3.0,7.0,40,0.00,,,0.00,weatherlink.com 1.10,2013-02-05 19:11:00,
2013-02-05 14:26:00,25.8,3.0,29.95,WSW,256,3.0,8.0,37,0.00,,,0.00,weatherlink.com 1.10,2013-02-05 19:26:00,
2013-02-05 14:41:00,25.6,2.0,29.95,NW,321,0.0,6.0,36,0.00,,,0.00,weatherlink.com 1.10,2013-02-05 19:41:00,
2013-02-05 14:56:00,25.6,2.0,29.95,WNW,296,0.0,5.0,36,0.00,,,0.00,weatherlink.com 1.10,2013-02-05 19:56:00,
2013-02-05 15:11:00,26.2,3.0,29.95,WNW,296,2.0,2.0,36,0.00,,,0.00,weatherlink.com 1.10,2013-02-05 20:11:00,
2013-02-05 15:26:00,25.4,2.0,29.94,WNW,296,0.0,2.0,36,0.00,,,0.00,weatherlink.com 1.10,2013-02-05 20:26:00,
2013-02-05 15:41:00,25.0,2.0,29.93,WNW,296,0.0,3.0,37,0.00,,,0.00,weatherlink.com 1.10,2013-02-05 20:41:00,
2013-02-05 15:56:00,24.9,2.0,29.93,WNW,296,0.0,0.0,37,0.00,,,0.00,weatherlink.com 1.10,2013-02-05 20:56:00,
2013-02-05 16:11:00,24.9,3.0,29.92,WNW,296,0.0,0.0,39,0.00,,,0.00,weatherlink.com 1.10,2013-02-05 21:11:00,
2013-02-05 16:26:00,24.8,2.0,29.92,WNW,296,0.0,0.0,38,0.00,,,0.00,weatherlink.com 1.10,2013-02-05 21:26:00,
2013-02-05 16:41:00,24.3,5.0,29.93,WNW,296,1.0,2.0,43,0.00,,,0.00,weatherlink.com 1.10,2013-02-05 21:41:00,
2013-02-05 16:56:00,23.7,5.0,29.93,WNW,296,2.0,4.0,44,0.00,,,0.00,weatherlink.com 1.10,2013-02-05 21:56:00,
2013-02-05 17:11:00,23.1,4.0,29.95,WNW,296,0.0,4.0,44,0.00,,,0.00,weatherlink.com 1.10,2013-02-05 22:11:00,
2013-02-05 17:26:00,22.7,4.0,29.94,WNW,296,0.0,1.0,44,0.00,,,0.00,weatherlink.com 1.10,2013-02-05 22:26:00,
2013-02-05 17:42:00,21.8,6.0,29.94,WNW,296,0.0,0.0,50,0.00,,,0.00,weatherlink.com 1.10,2013-02-05 22:42:00,
2013-02-05 17:57:00,21.1,6.0,29.94,WNW,296,0.0,2.0,52,0.00,,,0.00,weatherlink.com 1.10,2013-02-05 22:57:00,
2013-02-05 18:12:00,20.5,7.0,29.93,WNW,296,0.0,0.0,56,0.00,,,0.00,weatherlink.com 1.10,2013-02-05 23:12:00,
2013-02-05 18:27:00,19.9,8.0,29.94,WNW,296,0.0,0.0,59,0.00,,,0.00,weatherlink.com 1.10,2013-02-05 23:27:00,
2013-02-05 18:42:00,19.4,8.0,29.94,WNW,296,0.0,0.0,61,0.00,,,0.00,weatherlink.com 1.10,2013-02-05 23:42:00,
2013-02-05 18:57:00,18.9,8.0,29.94,WNW,296,0.0,0.0,63,0.00,,,0.00,weatherlink.com 1.10,2013-02-05 23:57:00,
2013-02-05 19:12:00,18.4,9.0,29.95,WNW,296,0.0,0.0,66,0.00,,,0.00,weatherlink.com 1.10,2013-02-06 00:12:00,
2013-02-05 19:27:00,18.0,9.0,29.94,WNW,296,0.0,0.0,67,0.00,,,0.00,weatherlink.com 1.10,2013-02-06 00:27:00,
2013-02-05 19:42:00,17.6,8.0,29.95,WNW,296,0.0,0.0,67,0.00,,,0.00,weatherlink.com 1.10,2013-02-06 00:42:00,
2013-02-05 19:57:00,17.2,9.0,29.95,WNW,296,0.0,0.0,70,0.00,,,0.00,weatherlink.com 1.10,2013-02-06 00:57:00,
2013-02-05 20:12:00,16.8,9.0,29.96,WNW,296,0.0,0.0,70,0.00,,,0.00,weatherlink.com 1.10,2013-02-06 01:12:00,
2013-02-05 20:27:00,16.5,9.0,29.96,WNW,296,0.0,0.0,73,0.00,,,0.00,weatherlink.com 1.10,2013-02-06 01:27:00,
2013-02-05 20:42:00,16.3,9.0,29.97,WNW,296,0.0,0.0,73,0.00,,,0.00,weatherlink.com 1.10,2013-02-06 01:42:00,
2013-02-05 20:57:00,16.4,9.0,29.97,WNW,296,0.0,0.0,74,0.00,,,0.00,weatherlink.com 1.10,2013-02-06 01:57:00,
2013-02-05 21:15:00,16.8,10.0,29.96,WNW,296,1.0,1.0,74,0.00,,,0.00,weatherlink.com 1.10,2013-02-06 02:15:00,
2013-02-05 21:28:00,17.1,10.0,29.96,WNW,296,0.0,2.0,72,0.00,,,0.00,weatherlink.com 1.10,2013-02-06 02:28:00,
2013-02-05 21:43:00,17.3,10.0,29.96,WNW,296,0.0,0.0,73,0.00,,,0.00,weatherlink.com 1.10,2013-02-06 02:43:00,
2013-02-05 21:58:00,17.4,10.0,29.96,WNW,296,0.0,0.0,73,0.00,,,0.00,weatherlink.com 1.10,2013-02-06 02:58:00,
2013-02-05 22:13:00,17.4,10.0,29.96,WNW,296,0.0,0.0,74,0.00,,,0.00,weatherlink.com 1.10,2013-02-06 03:13:00,
2013-02-05 22:28:00,17.4,10.0,29.95,WNW,296,0.0,0.0,74,0.00,,,0.00,weatherlink.com 1.10,2013-02-06 03:28:00,
2013-02-05 22:43:00,17.2,10.0,29.95,WNW,296,0.0,0.0,74,0.00,,,0.00,weatherlink.com 1.10,2013-02-06 03:43:00,
2013-02-05 22:58:00,16.7,10.0,29.95,WNW,296,0.0,0.0,76,0.00,,,0.00,weatherlink.com 1.10,2013-02-06 03:58:00,
2013-02-05 23:13:00,15.9,10.0,29.95,WNW,296,0.0,0.0,77,0.00,,,0.00,weatherlink.com 1.10,2013-02-06 04:13:00,
2013-02-05 23:28:00,15.5,10.0,29.95,WNW,296,0.0,0.0,79,0.00,,,0.00,weatherlink.com 1.10,2013-02-06 04:28:00,
2013-02-05 23:43:00,15.4,10.0,29.96,WNW,296,0.0,0.0,80,0.00,,,0.00,weatherlink.com 1.10,2013-02-06 04:43:00,
2013-02-05 23:58:00,15.6,11.0,29.96,WNW,296,0.0,0.0,80,0.00,,,0.00,weatherlink.com 1.10,2013-02-06 04:58:00,